Regional Weather Roundup
Issued by NWS

Home | Current Version | Previous Version | Graphics & Text | Print | Product List | Glossary On
Versions: 1 2 3 4 5 6 7 8 9 10 11 12 13 14 15 16 17 18 19 20 21 22 23 24 25 26 27 28 29 30 31 32 33 34 35 36 37 38 39 40 41 42 43 44 45 46 47 48 49 50
000
ASUS43 KLMK 110910
RWRKY
KENTUCKY REGIONAL WEATHER ROUNDUP
NATIONAL WEATHER SERVICE LOUISVILLE KY
500 AM EDT FRI JUL 11 2014

NOTE "FAIR" INDICATES FEW OR NO CLOUDS BELOW 12,000 FEET
WITH NO SIGNIFICANT WEATHER AND/OR OBSTRUCTIONS TO VISIBILITY.

KYZ001>023-026-027-061>063-070>075-111000-
WESTERN AND SOUTH CENTRAL KENTUCKY

CITY           SKY/WX    TMP DP  RH WIND       PRES   REMARKS
PADUCAH        CLEAR     67  64  90 CALM      30.11S FOG
HENDERSON      CLEAR     63  59  88 CALM      30.12S
OWENSBORO      CLEAR     68  61  78 CALM      30.13S
HOPKINSVILLE   CLEAR     66  66 100 CALM      30.12S
BOWLING GREEN  CLEAR     65  61  87 CALM      30.12S
GLASGOW        CLEAR     64  58  82 CALM      30.13S
$$

KYZ024-025-028>034-038-045-046-053-111000-
NORTH CENTRAL KENTUCKY

CITY           SKY/WX    TMP DP  RH WIND       PRES   REMARKS
LOUISVILLE/SDF PTCLDY    68  59  73 N3        30.14S
LOUISVILLE/LOU CLEAR     65  59  81 NW3       30.15S
FORT KNOX      CLEAR     64  60  86 N6        30.13F
$$

KYZ035>037-039>044-047>052-055>060-089>105-111000-
NORTHEAST KENTUCKY

CITY           SKY/WX    TMP DP  RH WIND       PRES   REMARKS
LEXINGTON      CLEAR     63  57  81 NE6       30.16S
COVINGTON      CLEAR     63  57  81 N5        30.17S
FRANKFORT      CLEAR     61  57  87 CALM      30.14F
$$

KYZ054-064>069-076>088-106>120-111000-
SOUTHEAST KENTUCKY

CITY           SKY/WX    TMP DP  RH WIND       PRES   REMARKS
JACKSON        CLEAR     67  60  78 CALM      30.16S
LONDON         CLEAR     65  61  87 CALM      30.15S
SOMERSET       CLEAR     63  63 100 CALM      30.15S
MIDDLESBORO    MOCLDY    61  60  98 CALM      30.16F
MONTICELLO     SUNNY     59  57  94 CALM      30.15S FOG
$$




USA.gov is the U.S. government's official web portal to all federal, state and local government web resources and services.